EHI
3 11 18 19 16 14 13 13 11 10 10 9 6 4 4 4 4 4 5 7 8 7 6 7 8 7 5 2 0 0 1 1 1 0 0 1 2 2 1 0 0 0 0
3 10 17 19 16 14 13 13 12 11 11 9 7 6 6 6 6 5 6 7 8 8 8 8 8 7 5 2 1 1 0 0 0 0 0 1 1 1 0 0 0 0 0
3 8 14 16 16 15 14 12 11 11 10 9 9 7 7 6 6 5 5 6 7 8 9 9 8 6 4 3 2 2 1 0 0 1 0 0 0 0 0 0 0 0 0
2 6 11 14 15 14 14 12 11 8 8 8 8 8 7 5 4 4 5 6 7 8 9 10 9 6 4 3 3 3 2 1 0 0 0 0 0 0 0 0 0 0 0
1 4 9 13 14 14 14 13 10 7 6 6 7 7 6 5 4 4 5 6 6 7 9 10 8 6 4 3 3 3 2 1 0 0 0 0 0 0 0 0 0 0 0
2 4 8 13 14 14 14 12 9 7 6 5 6 6 6 6 6 6 6 6 6 7 7 8 6 5 5 4 3 3 2 1 0 0 0 0 0 0 0 0 0 0 0
4 4 8 12 14 14 13 10 8 6 5 4 4 5 6 6 6 6 6 6 6 6 6 5 5 5 6 6 5 4 3 1 0 0 0 0 0 0 0 0 0 0 0
5 5 7 9 12 12 9 7 5 4 4 3 3 4 5 6 6 6 6 6 6 6 4 4 4 5 6 7 8 6 3 1 0 0 0 0 0 0 0 0 0 0 0
4 5 6 7 8 8 6 4 3 2 3 4 3 3 4 5 6 6 6 6 6 5 4 3 4 6 7 8 8 6 2 0 0 0 0 0 0 0 0 0 0 0 0
3 4 5 6 6 6 4 3 3 2 3 4 3 3 3 4 5 6 6 6 5 4 3 3 4 5 6 6 5 3 1 0 0 0 0 0 0 0 0 0 0 0 0
3 3 4 5 5 4 3 3 3 3 2 2 2 3 4 4 4 5 5 5 4 3 3 3 3 4 4 3 2 1 0 0 0 0 0 0 0 0 0 0 0 0 0
2 3 3 4 5 5 5 5 5 4 1 0 1 3 4 4 4 4 4 4 3 3 3 3 3 3 3 3 1 0 0 0 0 0 0 0 0 0 0 0 0 0 0
1 2 3 4 5 6 7 8 8 5 2 0 0 2 4 4 4 4 4 4 3 3 3 3 3 3 2 2 2 1 0 1 1 1 0 0 0 0 0 0 0 0 0
1 2 4 5 5 5 7 8 8 6 3 1 0 1 3 4 4 5 5 4 3 3 3 3 3 2 1 1 1 1 0 1 2 1 0 0 0 0 0 0 0 0 0
0 1 3 5 5 4 5 5 5 5 4 2 1 1 2 5 6 6 5 4 3 3 3 3 3 2 1 1 1 0 0 1 1 1 0 0 0 0 0 0 0 0 0
0 1 2 3 3 3 3 3 3 4 4 3 1 0 1 4 6 6 4 3 3 3 3 3 3 3 3 2 1 0 0 0 0 0 0 0 0 0 0 0 0 0 0
0 0 1 1 1 1 2 3 3 3 3 1 1 0 1 3 5 5 4 3 3 3 3 3 3 3 3 2 1 0 0 0 0 0 0 0 0 0 0 0 0 0 0
0 0 0 0 0 0 1 3 3 3 1 0 0 0 1 3 4 4 3 3 3 3 3 3 3 3 3 1 0 0 0 0 0 0 0 0 0 0 0 0 0 0 0
0 0 0 0 0 0 1 2 3 2 1 0 0 0 1 2 3 3 3 3 3 3 3 3 3 3 2 1 0 0 0 0 0 0 0 0 0 0 0 0 0 0 0
0 0 0 0 0 0 0 2 3 2 0 0 0 0 1 2 3 3 3 3 3 3 3 3 3 3 3 1 0 0 0 0 0 0 0 0 0 0 0 0 0 0 0
0 0 0 0 0 0 0 1 2 1 0 0 0 0 0 1 2 3 3 3 3 3 3 3 3 3 3 2 1 0 0 0 0 0 0 0 0 0 0 0 0 0 0
0 0 0 0 0 0 1 2 1 0 0 0 0 0 0 0 1 2 3 3 3 3 3 3 3 3 3 3 2 0 0 0 0 0 0 0 0 0 0 0 0 0 0
0 0 0 0 0 0 1 2 2 1 0 0 0 0 0 0 0 1 2 3 3 3 3 3 3 3 3 3 2 0 0 0 0 0 0 0 0 0 0 0 0 0 0
0 0 0 0 0 0 1 2 2 1 0 0 0 0 0 0 0 0 1 2 2 1 1 2 3 3 3 3 2 1 0 0 0 0 0 0 0 0 0 0 0 0 0
0 0 0 0 0 0 1 2 2 1 0 0 0 0 0 0 0 0 0 1 1 0 0 1 1 2 2 2 2 1 0 0 0 0 0 0 0 0 0 0 0 0 0
0 0 0 0 0 0 1 2 2 1 0 0 0 0 0 0 0 0 0 0 0 0 0 0 0 1 1 1 1 0 0 0 0 0 0 0 0 0 0 0 0 0 0
Wind_Speed
1 1 3 2 3 3 4 4 4 4 4 4 5 5 5 4 4 4 5 5 5 5 5 6 6 6 7 8 8 8 8 8 8 8 8 8 8 8 8 7 5 6 9
1 1 3 3 3 3 4 4 4 4 4 4 4 4 5 4 4 4 4 4 4 4 4 5 5 6 7 7 7 7 7 7 7 7 6 7 8 8 8 7 6 6 7
2 2 2 3 3 2 3 4 4 4 4 4 4 4 4 4 4 4 4 4 4 4 4 4 5 5 6 6 6 6 6 7 6 5 3 4 6 6 6 6 6 7 7
2 2 2 3 4 2 2 3 4 4 3 3 3 4 4 4 4 4 3 3 3 4 4 4 5 5 5 6 6 6 6 6 6 3 2 4 5 6 6 6 6 7 6
2 2 3 3 3 3 2 2 3 3 3 3 3 3 3 4 4 4 4 3 3 3 3 4 4 4 4 5 5 5 5 5 4 3 3 3 4 5 5 6 6 6 5
2 2 3 3 3 3 3 2 3 3 3 3 3 3 3 3 4 4 4 3 3 3 3 3 3 3 4 4 5 5 4 4 4 3 2 3 3 5 4 5 5 5 4
1 2 2 2 3 3 4 3 2 3 3 3 3 3 3 4 4 4 4 4 3 2 3 3 3 3 3 3 4 4 4 3 2 2 2 2 3 4 4 5 4 4 4
2 1 1 1 2 3 3 4 3 3 3 4 4 3 4 4 4 4 4 3 3 2 2 2 2 2 3 3 3 3 3 2 3 2 2 2 3 3 4 4 3 3 3
2 2 2 1 1 2 3 4 4 3 3 3 4 3 3 3 2 3 3 3 2 2 1 2 2 2 2 2 3 3 3 2 2 1 2 1 3 3 3 3 3 2 2
3 2 2 1 0 1 1 3 3 4 3 3 4 4 3 2 2 2 2 3 2 2 1 1 1 1 2 2 2 3 2 4 3 2 1 2 3 2 3 3 2 2 2
3 2 2 1 1 0 0 2 2 3 3 2 2 3 1 1 1 1 3 3 3 2 1 0 0 1 1 2 2 2 3 3 2 2 1 2 3 3 2 2 2 1 1
3 3 2 2 2 1 0 0 0 0 1 0 0 0 0 0 0 1 3 3 3 3 1 0 0 2 2 2 3 2 2 3 2 2 1 2 3 3 2 2 1 1 1
3 3 3 2 2 1 0 0 0 0 0 0 0 0 0 0 0 0 0 1 1 1 0 1 1 1 1 0 1 1 1 2 2 1 1 2 3 3 2 2 1 0 0
3 3 3 3 2 1 1 0 0 0 0 0 1 1 0 0 0 0 0 0 0 0 1 1 1 1 1 1 1 1 2 2 2 1 1 2 2 3 3 2 2 2 1
3 3 2 3 2 1 1 1 1 1 1 1 0 1 1 1 1 1 0 0 1 1 1 2 2 1 2 1 1 2 2 3 2 2 1 2 1 2 3 3 3 2 2
3 3 2 2 2 1 1 1 1 1 1 1 0 1 1 1 1 1 1 1 1 1 1 2 2 2 2 1 2 2 2 2 2 2 2 3 3 2 3 3 3 3 3
3 2 2 2 2 2 1 2 1 1 1 1 1 1 1 1 1 1 1 1 1 1 1 1 1 2 2 2 2 2 2 2 2 3 2 2 3 3 3 3 4 4 4
3 3 2 2 2 2 1 1 1 1 1 1 1 1 1 2 2 1 1 1 1 1 1 1 1 2 2 2 2 2 2 2 3 3 2 2 2 2 3 2 3 4 4
4 3 2 2 1 1 2 1 1 1 1 1 1 1 1 2 2 1 1 1 1 1 1 2 2 2 2 2 2 3 2 3 2 2 3 2 2 2 2 1 2 3 4
3 3 2 1 1 1 1 1 1 1 1 1 1 1 1 1 2 2 1 1 1 1 1 2 2 2 2 2 2 3 3 3 2 2 2 2 2 2 2 2 2 2 3
2 2 2 1 1 1 1 1 1 2 2 1 1 1 1 1 2 2 1 1 1 2 2 2 2 3 2 1 2 2 3 3 3 2 2 2 2 1 2 2 2 2 2
3 3 3 2 2 1 2 2 2 2 2 1 1 1 1 1 2 2 2 2 2 2 2 2 2 2 1 1 2 2 2 3 2 2 3 2 2 1 1 2 3 2 2
3 3 3 3 3 2 2 1 1 1 2 2 2 1 1 2 2 2 2 2 2 2 2 2 2 3 2 2 2 2 2 1 0 2 3 2 1 1 1 2 2 3 3
3 3 3 3 3 3 2 2 3 3 3 3 2 2 2 2 2 2 2 2 2 2 2 2 3 2 3 2 2 2 2 1 1 1 2 2 1 2 2 1 2 2 3
3 3 3 3 3 3 3 3 4 4 3 2 3 3 2 2 2 2 2 2 2 2 2 3 3 3 3 3 2 2 2 1 2 2 2 2 2 1 2 2 1 2 2
3 3 3 4 4 3 3 4 4 5 4 4 4 3 2 2 2 2 3 2 2 2 2 3 3 3 3 3 2 2 2 2 2 2 2 2 2 1 2 1 1 1 2
Wind_Direction
64 67 53 32 60 70 73 73 77 77 77 76 77 76 82 96 101 97 97 101 106 110 115 112 107 106 109 109 105 99 94 92 90 88 85 83 79 82 84 82 79 82 71
33 81 72 28 48 70 78 70 75 74 74 81 82 79 76 82 93 98 98 98 104 108 110 117 112 112 112 113 111 105 99 94 90 87 89 98 87 80 82 76 56 70 72
67 80 105 42 33 56 76 76 70 81 78 81 84 81 77 72 75 88 94 94 99 110 106 107 113 119 116 115 115 111 106 101 98 98 124 108 97 85 83 79 72 75 75
70 79 95 46 33 39 74 81 79 77 81 82 84 84 80 73 66 67 83 84 92 104 109 109 109 110 121 119 115 115 113 107 104 129 131 93 96 89 84 82 77 74 71
81 68 80 44 37 34 60 87 84 80 74 79 87 83 80 75 64 59 62 72 80 91 108 113 112 112 114 126 123 120 118 117 125 164 105 97 95 93 91 86 80 75 69
78 59 71 37 37 34 43 72 87 85 76 72 81 83 80 76 67 57 51 54 71 85 91 114 118 118 110 118 131 129 124 130 173 142 113 107 100 99 97 90 87 84 77
62 48 65 40 41 36 34 45 75 80 77 73 75 83 84 78 70 65 59 52 55 88 96 103 114 121 121 119 133 136 130 158 190 140 131 111 88 97 101 93 88 86 75
23 38 62 80 52 43 36 40 39 60 65 63 61 72 79 77 73 70 65 57 52 74 105 112 111 118 137 143 141 139 138 204 191 169 152 125 90 109 113 100 86 79 69
13 16 21 118 116 70 44 42 38 40 49 56 56 54 62 69 77 69 65 55 52 50 66 110 132 128 125 154 154 146 150 222 216 167 170 136 107 122 118 102 84 73 61
2 4 356 20 76 119 97 52 41 35 31 46 49 45 50 71 88 77 67 54 46 48 44 94 108 137 129 131 147 152 168 212 209 182 187 125 124 137 125 112 104 86 69
348 357 351 343 340 263 183 72 58 51 43 47 53 42 44 149 128 114 57 42 34 31 46 80 109 147 152 151 134 147 201 214 199 203 186 113 153 162 149 133 130 118 80
330 338 348 336 324 296 257 127 174 127 89 54 107 60 259 6 13 11 60 41 35 26 30 110 209 183 212 184 156 177 226 222 211 203 142 122 177 178 169 162 164 137 87
309 328 334 327 320 298 281 244 248 38 83 334 352 335 283 176 337 312 122 90 58 17 21 80 220 226 233 251 256 234 269 257 232 216 151 143 193 196 187 188 200 229 246
304 314 333 326 311 306 284 256 260 247 268 291 329 289 267 286 301 295 256 288 304 326 313 289 272 257 243 225 233 253 259 260 249 236 149 143 207 210 208 208 232 260 270
295 304 320 324 304 308 298 281 291 264 242 258 301 300 275 250 259 282 289 291 271 298 271 277 268 260 251 250 246 250 259 258 250 241 190 160 203 228 228 226 240 260 279
293 307 320 322 327 324 327 309 297 287 264 269 294 317 283 263 261 269 272 278 277 274 275 269 283 273 253 257 263 253 253 248 246 243 236 190 183 214 230 236 245 260 276
287 300 306 308 324 316 319 315 302 290 279 279 306 294 301 284 257 257 267 268 289 273 255 260 268 275 259 255 258 256 248 252 250 245 245 238 207 192 220 246 258 266 274
290 298 303 304 299 322 320 307 303 294 290 270 269 282 289 299 264 245 262 274 291 270 249 250 251 263 256 257 268 264 238 232 249 252 246 239 239 229 209 233 265 273 280
292 296 294 294 291 326 322 285 297 289 271 260 251 276 290 303 277 247 254 273 275 265 251 250 254 261 257 257 269 267 243 231 232 249 248 242 248 252 246 203 246 277 287
294 298 295 306 320 335 328 281 296 286 271 266 256 265 284 290 285 261 253 261 260 252 253 255 255 268 258 250 263 269 252 234 223 233 250 243 244 253 259 254 243 243 272
303 299 294 299 310 313 318 288 275 272 268 264 275 272 280 303 285 257 260 254 259 252 251 254 249 253 261 259 255 261 237 219 219 229 256 259 239 244 266 264 265 269 254
301 296 293 287 283 286 275 279 268 275 266 267 272 286 288 294 289 256 249 245 242 248 241 245 247 249 256 257 266 259 235 202 197 236 237 238 248 234 263 289 282 271 276
309 300 291 283 267 262 266 283 259 251 253 247 249 260 287 284 275 267 252 245 237 239 241 246 249 248 251 252 260 262 252 229 242 208 229 222 239 259 258 278 291 294 282
303 296 283 277 265 261 253 247 252 246 247 258 259 260 267 281 281 270 256 247 240 240 242 241 251 258 252 249 253 261 281 310 244 244 225 220 254 274 278 286 296 303 293
308 297 287 283 273 265 257 251 258 251 254 256 255 252 260 260 271 268 256 244 242 243 246 243 247 252 249 251 254 254 237 231 236 249 259 252 257 262 287 286 298 313 317
315 308 293 282 277 267 260 258 257 251 247 245 244 242 251 249 250 260 256 244 239 243 244 241 244 244 249 246 244 242 234 213 210 236 258 268 274 283 294 292 290 312 323